Regional Weather Roundup
Issued by NWS

Home | Current Version | Previous Version | Text Only | Print | Product List | Glossary Off
Versions: 1 2 3 4 5 6 7 8 9 10 11 12 13 14 15 16 17 18 19 20 21 22 23 24 25 26 27 28 29 30 31 32 33 34 35 36 37 38 39 40 41 42 43 44 45 46 47 48 49 50

000
ASUS44 KMEG 292110
RWRTN
TENNESSEE HOURLY STATE WEATHER ROUNDUP
NATIONAL WEATHER SERVICE MEMPHIS TN
400 PM CDT SUN MAR 29 2015

TNZ002-004-019-021-049-052-054-088>092-292200-
WEST TENNESSEE

CITY           SKY/WX    TMP DP  RH WIND       PRES   REMARKS
MEMPHIS INTL   SUNNY     69  47  45 S17G24    30.06F
NWS MEMPHIS      N/A     68 N/A N/A MISG        N/A
JACKSON        SUNNY     63  40  42 S15G23    30.08F
DYERSBURG      SUNNY    N/A N/A N/A S14       30.06F
UNION CITY     MOSUNNY   57  45  62 S16G28    30.04F
PARIS          CLOUDY    57  36  44 S15       30.07F
LEXINGTON      MOSUNNY   57  37  47 S12       30.10F
SAVANNAH       PTSUNNY   59  39  47 S12       30.13F
$$

TNZ008-025-027-028-033-062-065-066-292200-
NORTH MIDDLE TENNESSEE

CITY           SKY/WX    TMP DP  RH WIND       PRES   REMARKS
NASHVILLE      CLOUDY    62  30  29 S15G22    30.13F
CLARKSVILLE    CLOUDY    62  32  32 S17G26    30.06F
SMYRNA         PTSUNNY   60  29  31 S12G20    30.14F
COOKEVILLE     SUNNY     61  25  25 SW15      30.15F
CROSSVILLE     SUNNY     55  13  18 S10G18    30.18F
$$

TNZ061-075-076-078-094-096-097-292200-
SOUTH MIDDLE TENNESSEE

CITY           SKY/WX    TMP DP  RH WIND       PRES   REMARKS
FAYETTEVILLE   CLOUDY    57  28  33 S12       30.16F
TULLAHOMA      CLOUDY    57  27  30 S12       30.17F
WINCHESTER     CLOUDY    59  28  31 S12       30.18F
MCMINNVILLE    PTSUNNY   63  28  27 S13       30.16F
COLUMBIA       PTSUNNY   61  34  36 S9        30.12F
SHELBYVILLE    CLOUDY    61  30  31 S15       30.16F
$$

TNZ017-018-042-046-047-292200-
NORTHEAST TENNESSEE

CITY           SKY/WX    TMP DP  RH WIND       PRES   REMARKS
TRI CITIES     MOSUNNY   55   7  14 SW12      30.21F
ELIZABETHTON   CLEAR     54   9  16 NW8       30.20F
$$

TNZ012-013-036-069-073-074-292200-
CENTRAL EAST TENNESSEE

CITY           SKY/WX    TMP DP  RH WIND       PRES   REMARKS
KNOXVILLE      MOSUNNY   59  17  19 SW10      30.19F
OAK RIDGE      SUNNY     59  13  16 SW7G20    30.20F
GATLINBURG     CLEAR     61  14  16 VRB5      30.18F
MORRISTOWN     CLEAR     57  14  18 W8        30.19F
$$

TNZ083-085-099-292200-
SOUTHEAST TENNESSEE

CITY           SKY/WX    TMP DP  RH WIND       PRES   REMARKS
CHATTANOOGA    MOSUNNY   61  18  18 S13G21    30.21F
$$

SKY/WX REPORTED AS FAIR MEANS FEW OR NO CLOUDS BELOW
12 THOUSAND FEET.




USA.gov is the U.S. government's official web portal to all federal, state and local government web resources and services.